Tracking 18852 objects as of 23-Nov-2017
HD Live streaming from Space Station
objects crossing your sky now

NIMBUS 2 DEB

Track NIMBUS 2 DEB now!
10-day predictions


NORAD ID: 42441
Int'l Code: 1966-040BU
Perigee: 1,109.9 km
Apogee: 1,170.1 km
Inclination: 100.3 °
Period: 108.0 minutes
Semi major axis: 7510 km
RCS: Unknown
Launch date: May 15, 1966
Source: United States (US)
Launch site: AIR FORCE WESTERN TEST RANGE (AFWTR)

Note: This is SATELLITE DEBRIS
aabbcc
Your satellite tracking list
Your tracking list is empty




NASA's NSSDC Master Catalog

Two Line Element Set (TLE):
1 42441U 66040BU  17326.50068728 -.00000132  00000-0 -17454-3 0  9998
2 42441 100.3201  70.0132 0040067  82.3928 278.1744 13.33698561 45508
Source of the keplerian elements: AFSPC